Location: Newark
(42.4040°N, 21.7420°E)
Time: 07:27:42
(UTC+00:00)

N. Korean satellite - Visible Passes

Search period start: 14 December 2019 00:00
Search period end: 24 December 2019 00:00
Orbit: 455 x 507 km, 97.2° (Epoch: 13 December)

Date Brightness Start Highest point End Pass type
(mag) Time Alt. Az. Time Alt. Az. Time Alt. Az.
14 Dec 10.0 03:22:36 10° ENE 03:23:55 12° E 03:25:13 10° ESE visible
14 Dec 6.9 04:54:14 10° N 04:57:32 39° WNW 05:00:45 10° SW visible
14 Dec 6.6 15:29:28 10° SSE 15:33:09 76° ENE 15:36:50 10° N visible
15 Dec 6.4 04:28:38 10° NNE 04:32:08 89° NW 04:35:35 10° SSW visible
15 Dec 9.9 16:39:06 10° SW 16:41:18 15° W 16:43:29 10° NW visible
16 Dec 7.9 04:03:22 10° NNE 04:06:40 39° E 04:09:55 10° S visible
16 Dec 8.8 16:12:27 10° SSW 16:15:42 29° W 16:18:58 10° NW visible
17 Dec 9.3 03:38:34 10° NE 03:41:06 19° E 03:43:36 10° SE visible
17 Dec 7.6 05:11:37 10° NNW 05:14:28 24° WNW 05:17:17 10° SW visible
17 Dec 7.2 15:46:33 10° S 15:50:13 63° W 15:53:51 10° NNW visible
18 Dec 6.6 04:45:45 10° N 04:49:09 50° WNW 04:52:28 10° SSW visible
19 Dec 6.7 04:20:16 10° NNE 04:23:43 70° E 04:27:08 10° S visible
19 Dec 9.7 16:30:14 10° SW 16:32:51 18° W 16:35:28 10° NW visible
20 Dec 8.4 03:55:06 10° NNE 03:58:13 30° E 04:01:17 10° SSE visible
20 Dec 8.3 16:03:53 10° SSW 16:07:17 37° W 16:10:41 10° NNW visible
21 Dec 9.7 03:30:33 10° NE 03:32:37 15° E 03:34:39 10° SE visible
21 Dec 7.3 05:03:02 10° N 05:06:05 29° WNW 05:09:06 10° SW visible
21 Dec 6.7 15:38:09 10° S 15:41:48 82° WSW 15:45:26 10° NNW visible
22 Dec 6.3 04:37:18 10° N 04:40:44 66° WNW 04:44:07 10° SSW visible
22 Dec 10.1 16:48:48 10° WSW 16:50:02 11° W 16:51:14 10° WNW visible
23 Dec 7.2 04:11:54 10° NNE 04:15:17 53° E 04:18:37 10° S visible
23 Dec 9.3 16:21:29 10° SSW 16:24:24 23° W 16:27:18 10° NW visible
